Вернуться в каталог

STARLINK-5905

АктивенСвязьVLEO
NORAD 55986·PAYLOAD·🇺🇸 United States

Запущен Mar 24, 2023 с Cape Canaveral Space Force Station

Loading…

Ближайшие Пролёты (ближайшие 24 часа)

TLE

СвежийSource: CelesTrak SupGP

Эпоха: Sep 15, 2026, 03:08 UTC

1 55986C 23042A   26258.13104167 -.00030463  00000+0 -11036-2 0  2588
2 55986  43.0014  70.0070 0001465 271.7582 274.7473 15.27586714    10

Отслеживайте STARLINK-5905 в реальном времени с AllMySat

Download on the App Store